Regional Weather Roundup
Issued by NWS

Home | Current Version | Previous Version | Graphics & Text | Print | Product List | Glossary On
Versions: 1 2 3 4 5 6 7 8 9 10 11 12 13 14 15 16 17 18 19 20 21 22 23 24 25 26 27 28 29 30 31 32 33 34 35 36 37 38 39 40 41 42 43 44 45 46 47 48 49
000
ASUS45 KBOU 221507
RWRCO

WEATHER ROUNDUP FOR COLORADO
NATIONAL WEATHER SERVICE DENVER/BOULDER CO
800 AM MST SAT NOV 22 2014

NOTE: "FAIR" INDICATES FEW OR NO CLOUDS BELOW 12000 FEET WITH NO
SIGNIFICANT WEATHER AND/OR OBSTRUCTIONS TO VISIBILITY.

COZ001>005-013-030-031-221600-
...NORTHWEST COLORADO...

CITY           SKY/WX    TMP DP  RH WIND       PRES   REMARKS
CRAIG          CLOUDY    25  20  81 W3        29.99F
HAYDEN         CLOUDY    21  16  79 CALM      29.99F
MEEKER         MOCLDY    38  19  46 VRB3      30.01S
MOUNT WERNER   NOT AVBL
STEAMBOAT SPGS CLOUDY    17  13  86 SW3       30.01F
WALDEN         MOCLDY    30  18  59 SE16G22   29.94S WCI  19
$$

COZ006>008-011-221600-
...WEST CENTRAL VALLEYS...

CITY           SKY/WX    TMP DP  RH WIND       PRES   REMARKS
GRAND JUNCTION PTCLDY    24  17  74 E3        30.08S
MONTROSE       PTCLDY    26  18  71 S5        30.12R WCI  20
EAGLE          PTCLDY    18  16  93 CALM      30.11R
RIFLE          PTCLDY    21  17  84 NE3       30.10F
DELTA          PTCLDY    24  17  72 E3        30.12R
NUCLA          PTCLDY    30  21  69 CALM      30.15R
$$

COZ017>023-064>068-221600-
...SOUTHWEST COLORADO...

CITY           SKY/WX    TMP DP  RH WIND       PRES   REMARKS
DURANGO        CLEAR     23  19  85 CALM      30.11S
CORTEZ         CLEAR     22  18  85 CALM      30.13R
PAGOSA SPRINGS SUNNY     25  20  82 CALM      30.12S
TELLURIDE      PTCLDY    24  15  67 E5        30.16R WCI  19
WOLF CREEK PAS   N/A     19  14  79 SW16      30.13S WCI   5
$$

COZ009-010-012-014-032>034-037-058>063-221600-
...CENTRAL COLORADO...

CITY           SKY/WX    TMP DP  RH WIND       PRES   REMARKS
ASPEN          PTCLDY    21  12  68 S6        30.07R WCI  13
BUENA VISTA    MOSUNNY   28  14  56 S6        30.00R WCI  22
COPPER MTN     PTCLDY    23   9  54 SW12G17   30.07R WCI  12
BERTHOUD PASS  FAIR      12   9  85 NW38G51   29.95F WCI -11
COTTONWOOD PAS MOSUNNY   32  10  40 W30G48    30.00S WCI  18
GUNNISON       PTCLDY     7   3  85 CALM      30.20R
KREMMLING      MOCLDY    14  12  92 NE3       30.06F
LEADVILLE      PTCLDY    24   8  50 N18G24    30.03S WCI  10
SALIDA         MOSUNNY   39  16  40 SW18G28   30.06S
SUNLIGHT       MOCLDY    25  19  80 CALM      30.09S
WILKERSON PASS MOSUNNY   21   7  53 SW16G23   29.98S WCI   7
$$

COZ069>075-221600-
...SAN LUIS VALLEY/SANGRE DE CRISTO MOUNTAINS...

CITY           SKY/WX    TMP DP  RH WIND       PRES   REMARKS
ALAMOSA        PTSUNNY   14   9  80 S3        30.09S
LA VETA PASS   NOT AVBL
SAGUACHE       NOT AVBL
$$

COZ035-036-038>040-221600-
...NORTHERN COLORADO FRONT RANGE...

CITY           SKY/WX    TMP DP  RH WIND       PRES   REMARKS
DENVER INTL AP MOSUNNY   43  16  33 SW15      29.76F
DMNS CITY PARK   N/A     46  11  24 S5        29.76S
AURORA         MOSUNNY   42  15  34 S15       29.78F
FRONT RANGE AP MOSUNNY   45  18  33 SW20G28   29.77F
ERIE MUNI ARPT MOSUNNY   37  24  60 CALM      29.73F
BOULDER MUN AP PTCLDY    43  19  39 N3        29.73S
CENTENNIAL     MOSUNNY   46  11  24 SW15G25   29.78F
BROOMFIELD     PTSUNNY   52  12  20 W28G37    29.75F
FORT COLLINS   MOCLDY    28  21  74 W3        29.76S
LONGMONT       MOCLDY    53  16  23 W12G26    29.74S
$$

COZ041-046-047-076>085-087-088-221600-
...PIKES PEAK/PALMER DIVIDE AND SOUTHERN FOOTHILLS...

CITY           SKY/WX    TMP DP  RH WIND       PRES   REMARKS
COLO. SPRINGS  MOSUNNY   38  18  44 NE7       29.84F
A. F. ACADEMY  SUNNY     46   6  19 VRB5      29.82F
ELLICOTT       NOT AVBL
FALCON         NOT AVBL
FORT CARSON    MOSUNNY   33  18  52 N3        29.82F
LIMON          SUNNY     44  15  31 W7G17     29.82F
MONUMENT HILL  MOSUNNY   41   9  26 SW14      29.82F
TRINIDAD       MOSUNNY   37  17  44 W14       29.91F
$$

COZ042>045-048>051-090-091-221600-
...NORTHEAST COLORADO...

CITY           SKY/WX    TMP DP  RH WIND       PRES   REMARKS
GREELEY ARPT   PTSUNNY   27  18  69 CALM      29.76F
AKRON          SUNNY     46  18  32 SW17      29.76F
BURLINGTON     SUNNY     45  22  40 SW12      29.81F
WRAY           SUNNY     37  21  52 W7        29.77F
STERLING       SUNNY     28  25  86 S5        29.76F WCI  23
HOLYOKE        SUNNY     36  23  60 W9        29.76F
FORT MORGAN    SUNNY     33  22  63 SW6       29.76F WCI  28
$$

COZ086-089-092>099-221600-
...SOUTHEAST COLORADO...

CITY           SKY/WX    TMP DP  RH WIND       PRES   REMARKS
PUEBLO         SUNNY     30  24  78 CALM      29.87F
LA JUNTA       SUNNY     37  26  64 SW6       29.87F
LAMAR          SUNNY     31  28  89 W7        29.86F WCI  24
SPRINGFIELD      N/A     44  27  51 W10       29.87F
$$


USA.gov is the U.S. government's official web portal to all federal, state and local government web resources and services.